Saipan, MP

9:30 PM ChST on June 27, 2017 (GMT +1000)
Saipan International

Weather History for PGSN - September, 2013

Change the Weather History Date:

Friday, September 27, 2013

  Actual Average Record
Temperature  
Mean Temperature 82 °F -  
Max Temperature 87 °F 84 °F 90 °F (2016)
Min Temperature 77 °F 76 °F 75 °F (1997)
Cooling Degree Days 17    
Growing Degree Days 32 (Base 50)    
Moisture  
Dew Point 76 °F    
Average Humidity 83    
Maximum Humidity 94    
Minimum Humidity 69    
Precipitation  
Precipitation 0.40 in - - ()
Sea Level Pressure  
Sea Level Pressure 29.83 in    
Wind  
Wind Speed 4 mph (East)    
Max Wind Speed 10 mph    
Max Gust Speed -    
Visibility 9 miles    
Events Rain    
Averages and records for this station are not official NWS values.
T = Trace of Precipitation, MM = Missing Value Source: NWS Daily Summary

Daily Weather History Graph

Daily Weather History Graph

Search for Another Location

Airport or City:

Trip Planner

Search our weather history database for the weather conditions in past years. The results will help you decide how hot, cold, wet, or windy it might be!

Date:

Astronomy

Sep. 27, 2013 Rise Set
Actual Time 6:06 AM ChST 6:09 PM ChST
Civil Twilight 5:45 AM ChST 6:31 PM ChST
Nautical Twilight 5:20 AM ChST 6:55 PM ChST
Astronomical Twilight 4:55 AM ChST 7:20 PM ChST
Moon No Moon Rise 12:28 PM ChST
Length of Visible Light 12h 45m
Length of Day
12h 03m
Waning Gibbous, 51% of the Moon is Illuminated
Sep 27
Waning Gibbous
Sep 27
Last Quarter
Oct 5
New
Oct 12
First Quarter
Oct 19
Full

Hourly Weather History & Observations

Time (ChST) Temp. Heat Index Dew Point Humidity Pressure Visibility Wind Dir Wind Speed Gust Speed Precip Events Conditions
12:04 AM 82.4 °F 89.5 °F 75.2 °F 79% 29.80 in 10.0 mi East 3.5 mph - N/A   Scattered Clouds
12:54 AM 81.0 °F 87.3 °F 75.9 °F 85% 29.84 in 10.0 mi Calm Calm - N/A   Clear
1:54 AM 81.0 °F 87.3 °F 75.9 °F 85% 29.83 in 10.0 mi Calm Calm - N/A   Partly Cloudy
2:54 AM 80.1 °F 85.8 °F 77.0 °F 90% 29.83 in 10.0 mi Calm Calm - 0.00 in   Mostly Cloudy
3:54 AM 79.0 °F - 75.0 °F 88% 29.83 in 10.0 mi Calm Calm - N/A   Scattered Clouds
4:54 AM 79.0 °F - 77.0 °F 94% 29.83 in 6.0 mi SSE 6.9 mph - 0.01 in Rain Light Rain
5:54 AM 79.0 °F - 75.0 °F 88% 29.83 in 10.0 mi East 3.5 mph - 0.00 in   Scattered Clouds
6:54 AM 79.0 °F - 75.9 °F 90% 29.84 in 10.0 mi ENE 3.5 mph - N/A   Clear
7:54 AM 82.9 °F 91.8 °F 77.0 °F 82% 29.86 in 10.0 mi NE 3.5 mph - N/A   Scattered Clouds
8:54 AM 84.0 °F 93.7 °F 77.0 °F 79% 29.87 in 10.0 mi ENE 4.6 mph - N/A   Mostly Cloudy
9:54 AM 84.9 °F 95.3 °F 77.0 °F 77% 29.86 in 10.0 mi East 8.1 mph - N/A   Scattered Clouds
10:54 AM 87.1 °F 98.8 °F 77.0 °F 72% 29.85 in 10.0 mi ENE 5.8 mph - N/A   Scattered Clouds
11:54 AM 86.0 °F 96.0 °F 75.9 °F 72% 29.83 in 10.0 mi East 8.1 mph - N/A   Scattered Clouds
12:54 PM 87.1 °F 98.8 °F 77.0 °F 72% 29.82 in 10.0 mi ENE 6.9 mph - N/A   Scattered Clouds
1:54 PM 87.1 °F 98.8 °F 77.0 °F 72% 29.80 in 10.0 mi East 8.1 mph - N/A   Scattered Clouds
2:54 PM 86.0 °F 96.0 °F 75.9 °F 72% 29.78 in 10.0 mi East 10.4 mph - N/A   Mostly Cloudy
3:54 PM 87.1 °F 97.3 °F 75.9 °F 69% 29.79 in 10.0 mi ENE 10.4 mph - N/A   Mostly Cloudy
4:54 PM 84.9 °F 95.3 °F 77.0 °F 77% 29.80 in 10.0 mi ENE 9.2 mph - N/A   Scattered Clouds
5:54 PM 82.9 °F 90.8 °F 75.9 °F 79% 29.81 in 10.0 mi ENE 5.8 mph - N/A   Scattered Clouds
6:54 PM 82.0 °F 90.2 °F 77.0 °F 85% 29.83 in 10.0 mi East 3.5 mph - 0.00 in   Overcast
7:54 PM 79.0 °F - 75.9 °F 90% 29.86 in 3.0 mi NE 6.9 mph - 0.24 in Rain Heavy Rain
8:54 PM 80.1 °F 86.4 °F 78.1 °F 94% 29.87 in 10.0 mi East 6.9 mph - 0.03 in   Overcast
9:54 PM 77.0 °F - 75.0 °F 94% 29.88 in 7.0 mi East 8.1 mph - 0.09 in Rain Rain
10:54 PM 78.1 °F - 75.9 °F 93% 29.87 in 10.0 mi ENE 4.6 mph - 0.03 in   Scattered Clouds
11:54 PM 79.0 °F - 75.0 °F 88% 29.85 in 10.0 mi East 5.8 mph - N/A   Scattered Clouds